Bemidji Regional Airport Bemidji US
ICAO: KBJI
IATA: BJI
Category: Medium
Scheduled Services: No

Elevation: 1391 ft
TransAlt. 18000 ft.

Airport Communications:
AWOS 3:119.275
MINNEAPOLIS CNTR:134.75
PRINCETON RDO:123.6
CTAF/UNICOM:122.8

KBJI Zoom In..

Runways:

(A) RW 07 length 5700 ft width 150 ft
---- / hdg 70

(B) RW 13 length 7004 ft width 150 ft
---- / hdg 130

(C) RW 25 length 5700 ft width 150 ft
ILS 109.35 / hdg 250

(D) RW 31 length 7004 ft width 150 ft
ILS 111.90 / hdg 310

Location; KBJI
Day. 19 / Time. 20.55 Zulu
* Altimeter: 30.39
* Temperature: 12° c. 53.6°f.
* Wind from: 270° Speed 08 kn.
Dewpoint: -08° c.
Visibility: 10 Statute Miles.
Clouds: Clear (automated report).

KBJI 192055Z AUTO 27008KT 10SM CLR 12/M08 A3039 RMK AO2 T01191084


Wind From 270°
Speed 08 kn.

  YouTube Music Video
 
jpsmedia.com for Web Design  worldairports.se 2018   terms of use